Starlink 31215

operational
NORAD ID: 58872 Int'l Des: 2024-019 Owner: SPXS Country: US Constellation: starlink
LEOCIRCULAR

Starlink 31215について

説明を読み込み中...

リアルタイム位置

3D地球を読み込み中...

次回通過

高度履歴

Altitude vs Time

uPlot chart will show altitude changes over time

軌道要素

1 58872U 24019V 25260.08139306 -.00005154 00000-0 -17802-3 0 9999
2 58872 43.0033 149.1704 0001345 261.9326 98.1373 15.27557272 92514
Epoch: Sep 17, 2025 • Age: 21 hours

現在のステータス

高度 493.6 km
速度 7.62 km/s
衛星直下点 -38.21°S, 32.74°E
打ち上げ日 Jan 29, 2024
運用期間 1.6 years
タイプ internet

技術仕様

分類 Payload
質量 730.00 kg
乾燥質量 700.00 kg
総質量 730.00 kg
長さ 0.30 m
直径 4.10 m
スパン 29.00 m
形状 Box + pan
製造者 SPXS
バスタイプ Starlink V2M
フェーズステータス In Orbit
所有者/国 SPXS/US

大規模コンステレーション

Loading constellations...